Eagle River, WI

7:09 AM CDT on April 21, 2018 (GMT -0500)
Eagle River Union

Weather History for KEGV - October, 2011

Change the Weather History Date:

Friday, October 28, 2011

  Actual Average Record
Temperature  
Mean Temperature 34 °F -  
Max Temperature 46 °F 46 °F 57 °F (1998)
Min Temperature 22 °F 30 °F 19 °F (2012)
Degree Days  
Heating Degree Days 31    
Moisture  
Dew Point 29 °F    
Average Humidity 87    
Maximum Humidity 100    
Minimum Humidity 42    
Precipitation  
Precipitation 0.05 in - - ()
Sea Level Pressure  
Sea Level Pressure 30.01 in    
Wind  
Wind Speed 2 mph (SW)    
Max Wind Speed 12 mph    
Max Gust Speed 22 mph    
Visibility 7 miles    
Events Fog , Rain    
Averages and records for this station are not official NWS values.
T = Trace of Precipitation, MM = Missing Value Source: NWS Daily Summary

Daily Weather History Graph

Daily Weather History Graph

Search for Another Location

Airport or City:

Astronomy

Oct. 28, 2011 Rise Set
Actual Time 7:31 AM CDT 5:49 PM CDT
Civil Twilight 7:00 AM CDT 6:20 PM CDT
Nautical Twilight 6:25 AM CDT 6:55 PM CDT
Astronomical Twilight 5:50 AM CDT 7:29 PM CDT
Moon 9:56 AM CDT (10/28) 7:02 PM CDT (10/28)
Length of Visible Light 11h 19m
Length of Day
10h 18m
Waxing Crescent, 5% of the Moon is Illuminated
Oct 28
Waxing Crescent
Nov 2
First Quarter
Nov 10
Full
Nov 18
Last Quarter
Nov 25
New

Hourly Weather History & Observations

Time (CDT) Temp. Windchill Dew Point Humidity Pressure Visibility Wind Dir Wind Speed Gust Speed Precip Events Conditions
12:15 AM 27.0 °F - 27.0 °F 100% 30.06 in 0.5 mi Calm Calm - N/A Fog Light Freezing Fog
12:35 AM 26.6 °F - 26.6 °F 100% 30.06 in 0.5 mi Calm Calm - N/A Fog Light Freezing Fog
12:55 AM 26.2 °F - 26.2 °F 100% 30.06 in 0.8 mi Calm Calm - N/A   Overcast
1:15 AM 25.7 °F - 25.7 °F 100% 30.06 in 7.0 mi Calm Calm - N/A   Scattered Clouds
1:35 AM 25.9 °F - 25.9 °F 100% 30.06 in 1.2 mi Calm Calm - N/A   Mostly Cloudy
1:55 AM 24.6 °F - 24.6 °F 100% 30.05 in 10.0 mi Calm Calm - N/A   Mostly Cloudy
2:15 AM 24.8 °F - 24.8 °F 100% 30.06 in 3.0 mi Calm Calm - N/A   Mostly Cloudy
2:35 AM 24.8 °F - 24.8 °F 100% 30.06 in 0.8 mi Calm Calm - N/A   Scattered Clouds
3:15 AM 23.9 °F - 23.9 °F 100% 30.06 in 5.0 mi Calm Calm - N/A   Scattered Clouds
3:35 AM 23.7 °F - 23.7 °F 100% 30.05 in 0.5 mi Calm Calm - N/A Fog Light Freezing Fog
3:55 AM 23.5 °F - 23.5 °F 100% 30.06 in 0.5 mi Calm Calm - N/A Fog Light Freezing Fog
4:15 AM 23.4 °F - 23.4 °F 100% 30.06 in 10.0 mi Calm Calm - N/A   Scattered Clouds
4:35 AM 22.8 °F - 22.8 °F 100% 30.06 in 4.0 mi Calm Calm - N/A   Mostly Cloudy
4:55 AM 23.4 °F - 23.4 °F 100% 30.05 in 7.0 mi Calm Calm - N/A   Mostly Cloudy
5:15 AM 23.4 °F - 23.4 °F 100% 30.05 in 10.0 mi Calm Calm - N/A   Scattered Clouds
5:35 AM 22.8 °F - 22.8 °F 100% 30.06 in 10.0 mi Calm Calm - N/A   Clear
5:55 AM 23.2 °F - 23.2 °F 100% 30.06 in 7.0 mi Calm Calm - N/A   Clear
6:15 AM 23.0 °F - 23.0 °F 100% 30.06 in 10.0 mi Calm Calm - N/A   Scattered Clouds
6:35 AM 23.2 °F - 23.2 °F 100% 30.05 in 10.0 mi Calm Calm - N/A   Overcast
6:55 AM 24.3 °F - 24.3 °F 100% 30.05 in 10.0 mi Calm Calm - N/A   Overcast
7:15 AM 24.3 °F - 24.3 °F 100% 30.05 in 10.0 mi Calm Calm - N/A   Overcast
7:35 AM 25.0 °F - 25.0 °F 100% 30.05 in 10.0 mi Calm Calm - N/A   Overcast
7:55 AM 25.9 °F - 25.9 °F 100% 30.05 in 10.0 mi Calm Calm - N/A   Overcast
8:15 AM 26.8 °F - 26.8 °F 100% 30.05 in 7.0 mi Calm Calm - N/A   Overcast
8:35 AM 28.2 °F - 28.2 °F 100% 30.06 in 5.0 mi Calm Calm - N/A   Overcast
8:55 AM 29.8 °F - 29.8 °F 100% 30.06 in 5.0 mi Calm Calm - N/A   Overcast
9:15 AM 31.1 °F - 31.1 °F 100% 30.05 in 5.0 mi Calm Calm - N/A   Overcast
9:35 AM 32.0 °F - 32.0 °F 100% 30.04 in 5.0 mi Calm Calm - N/A   Mostly Cloudy
10:15 AM 35.4 °F - 35.4 °F 100% 30.04 in 10.0 mi Calm Calm - N/A   Scattered Clouds
10:35 AM 37.6 °F 32.3 °F 36.7 °F 97% 30.03 in 10.0 mi SW 6.9 mph - N/A   Clear
10:55 AM 40.6 °F 35.4 °F 33.4 °F 75% 30.03 in 10.0 mi SW 8.1 mph - N/A   Unknown
11:15 AM 42.1 °F 36.6 °F 30.9 °F 65% 30.03 in 10.0 mi WSW 9.2 mph - N/A   Clear
11:35 AM 43.5 °F 39.4 °F 30.2 °F 59% 30.02 in 10.0 mi SW 6.9 mph - N/A   Clear
11:55 AM 45.3 °F 43.0 °F 29.5 °F 54% 30.01 in 10.0 mi SW 4.6 mph - N/A   Mostly Cloudy
12:15 PM 45.1 °F 40.8 °F 27.9 °F 51% 30.01 in 10.0 mi SW 8.1 mph - N/A   Overcast
12:35 PM 45.7 °F 40.2 °F 27.3 °F 49% 30.00 in 10.0 mi WSW 11.5 mph 18.4 mph N/A   Overcast
12:55 PM 46.8 °F - 25.9 °F 44% 29.99 in 10.0 mi SW 9.2 mph 17.3 mph N/A   Mostly Cloudy
1:15 PM 46.8 °F - 24.6 °F 42% 29.98 in 10.0 mi SSW 8.1 mph - N/A   Scattered Clouds
1:35 PM 46.4 °F 42.4 °F 25.0 °F 43% 29.97 in 10.0 mi SW 8.1 mph - N/A   Mostly Cloudy
1:55 PM 46.2 °F 41.2 °F 24.6 °F 43% 29.96 in 10.0 mi WSW 10.4 mph - N/A   Overcast
2:15 PM 45.9 °F 40.8 °F 25.0 °F 44% 29.96 in 10.0 mi WSW 10.4 mph - N/A   Overcast
2:35 PM 45.7 °F 41.0 °F 24.8 °F 44% 29.96 in 10.0 mi WSW 9.2 mph - N/A   Overcast
2:55 PM 44.6 °F 39.2 °F 25.9 °F 48% 29.96 in 10.0 mi SSW 10.4 mph 21.9 mph N/A   Light Drizzle
3:15 PM 43.2 °F 37.0 °F 28.0 °F 55% 29.95 in 10.0 mi SSW 11.5 mph 19.6 mph N/A Rain Light Rain
3:35 PM 42.3 °F 38.6 °F 30.2 °F 62% 29.95 in 10.0 mi SSW 5.8 mph - N/A   Light Drizzle
3:55 PM 41.5 °F 37.1 °F 31.5 °F 67% 29.95 in 10.0 mi WSW 6.9 mph - N/A Rain Light Rain
4:15 PM 40.8 °F 34.5 °F 32.4 °F 72% 29.96 in 10.0 mi SW 10.4 mph - N/A Rain Rain
4:35 PM 39.0 °F 35.7 °F 34.0 °F 82% 29.96 in 10.0 mi SW 4.6 mph - N/A Rain Light Rain
4:55 PM 38.1 °F 34.6 °F 36.7 °F 95% 29.96 in 4.0 mi WSW 4.6 mph - 0.02 in Rain Rain
5:15 PM 37.6 °F 33.1 °F 37.6 °F 100% 29.96 in 7.0 mi WSW 5.8 mph - 0.02 in Rain Rain
5:35 PM 37.2 °F - 37.2 °F 100% 29.96 in 10.0 mi Calm Calm - 0.03 in Rain Light Rain
5:55 PM 37.0 °F - 37.0 °F 100% 29.96 in 10.0 mi Calm Calm - 0.03 in   Overcast
6:15 PM 36.7 °F - 36.7 °F 100% 29.96 in 10.0 mi Calm Calm - N/A   Overcast
6:35 PM 36.1 °F 33.5 °F 36.1 °F 100% 29.96 in 7.0 mi South 3.5 mph - N/A   Scattered Clouds
6:55 PM 35.1 °F - 35.1 °F 100% 29.96 in 7.0 mi Calm Calm - N/A   Clear
7:15 PM 34.2 °F - 34.2 °F 100% 29.97 in 4.0 mi Calm Calm - N/A   Clear
7:35 PM 32.9 °F - 32.9 °F 100% 29.97 in 2.0 mi Calm Calm - N/A   Clear
7:55 PM 32.4 °F - 32.4 °F 100% 29.96 in 1.0 mi Calm Calm - N/A   Mist
8:15 PM 32.2 °F 28.9 °F 32.2 °F 100% 29.96 in 1.2 mi SSE 3.5 mph - N/A   Scattered Clouds
8:35 PM 31.6 °F - 31.6 °F 100% 29.96 in 1.0 mi Calm Calm - N/A   Scattered Clouds
9:15 PM 32.0 °F - 32.0 °F 100% 29.96 in 0.5 mi Calm Calm - N/A Fog Fog
9:35 PM 31.3 °F 27.9 °F 31.3 °F 100% 29.97 in 2.5 mi WSW 3.5 mph - N/A   Mostly Cloudy
9:55 PM 32.7 °F 27.3 °F 32.7 °F 100% 29.96 in 5.0 mi WSW 5.8 mph - N/A   Overcast
10:15 PM 33.4 °F 28.1 °F 33.4 °F 100% 29.95 in 10.0 mi WSW 5.8 mph - N/A   Overcast
10:35 PM 32.9 °F 26.7 °F 32.9 °F 100% 29.95 in 10.0 mi SW 6.9 mph - N/A   Mostly Cloudy
10:55 PM 32.4 °F 27.9 °F 32.4 °F 100% 29.95 in 10.0 mi SW 4.6 mph - N/A   Scattered Clouds
11:15 PM 32.2 °F - 32.2 °F 100% 29.94 in 10.0 mi Calm Calm - N/A   Mostly Cloudy
11:35 PM 32.4 °F - 32.4 °F 100% 29.94 in 7.0 mi Calm Calm - N/A   Mostly Cloudy
11:55 PM 31.3 °F - 31.3 °F 100% 29.94 in 0.2 mi Calm Calm - N/A Fog Light Freezing Fog